User: anonymous   Login
Location: Caltech
(34.1382°N, 118.1253°W)
Time: 22:49:00
(UTC-07:00)
Language:

Cosmos 1733 Rocket - Orbit

View from above orbital plane
View from above orbital plane
View from above satellite
View from above satellite

Ground track
Ground track

The orbit data is extracted from the following two-line orbital elements,

1 16612U 86018B   15208.55142043  .00000161  00000-0  16434-4 0  9999
2 16612 082.5147 224.3164 0016150 272.5316 201.0408 14.83953178489023
Epoch (UTC): 27 July 2015 13:14:02
Eccentricity: 0.0016150
inclination: 82.5147°
perigee height: 605 km
apogee height: 628 km
right ascension of ascending node: 224.3164°
argument of perigee: 272.5316°
revolutions per day: 14.83953178
mean anomaly at epoch: 201.0408°
orbit number at epoch: 48902

The dashed part of the orbit path shows where the satellite is in the earth's shadow,  

DLR